Temp
77 72 68 74 76 77 72 70 69 74 77 73 75 77 81 86 87 87 88 87 86 86 88 89 89 90 91 92 92 89 87 86 86 86 84 85 83 82 81 80 83 85 87 89
71 67 77 78 76 72 70 68 69 73 76 74 75 74 81 84 83 83 82 81 81 84 85 85 86 87 88 88 89 89 87 85 85 87 86 88 90 92 87 81 79 83 85 85
69 73 78 74 71 68 70 68 69 69 73 75 73 71 76 79 79 79 80 80 80 80 80 82 83 84 86 86 86 88 88 86 85 85 86 85 87 86 87 82 81 80 80 84
73 79 72 71 70 72 65 73 72 69 67 64 74 64 72 76 75 75 76 78 79 80 82 83 83 83 83 83 88 88 88 86 86 85 85 82 84 81 84 85 87 83 81 81
69 71 71 68 70 74 68 76 72 71 68 68 67 65 74 75 71 70 73 75 77 80 81 81 83 83 84 83 86 89 88 87 85 84 82 85 81 87 86 85 81 81 82 83
74 77 73 72 72 74 74 71 70 70 68 58 65 65 69 72 70 68 71 73 75 78 80 81 83 83 83 85 83 83 85 85 85 84 82 81 82 82 87 86 85 85 85 84
69 69 71 71 69 72 71 66 56 54 56 54 70 66 69 65 67 68 68 71 74 77 79 79 80 81 80 80 79 79 78 77 80 84 83 82 81 81 81 83 85 85 85 86
61 54 65 68 66 66 68 66 58 48 52 59 65 58 64 67 69 70 70 72 74 76 78 78 79 80 81 78 78 78 77 76 77 79 77 80 81 83 84 83 84 82 86 79
59 57 65 65 68 66 64 59 65 58 61 56 63 60 63 66 66 67 69 70 71 74 75 77 79 79 80 79 77 77 77 77 77 75 75 75 78 79 79 80 78 73 74 76
60 52 61 63 67 67 63 65 53 57 42 42 55 57 59 61 63 67 67 68 70 73 76 77 78 78 79 81 81 80 79 78 78 78 79 77 73 73 73 74 75 75 77 76
61 56 57 61 60 60 61 60 59 57 52 43 43 48 61 60 63 63 65 66 68 71 74 76 78 80 81 82 83 80 80 79 78 78 79 78 79 75 71 71 72 74 76 76
61 55 51 54 61 62 61 59 59 50 47 54 53 49 65 63 64 64 64 65 68 70 72 73 74 76 78 79 80 79 79 80 80 79 78 77 78 77 74 70 70 71 72 74
60 53 47 50 55 58 55 59 57 56 56 49 43 50 62 62 62 63 63 65 67 67 70 72 73 73 73 73 75 76 78 79 80 79 79 77 76 77 71 73 73 70 72 75
58 54 49 46 48 54 49 53 56 54 48 49 50 50 55 60 59 62 63 64 65 66 67 69 70 71 71 71 71 72 74 76 78 79 78 75 75 76 76 75 73 69 69 72
57 49 52 54 53 53 52 52 54 51 54 48 53 53 58 61 61 61 62 63 64 65 65 66 67 68 69 69 69 71 72 71 74 74 77 73 74 76 76 76 77 75 69 68
56 48 51 49 52 51 49 53 54 54 54 54 54 53 64 62 63 62 62 62 62 64 65 65 65 66 66 68 68 68 69 70 71 72 74 76 75 74 73 73 75 75 74 68
52 51 47 43 47 49 43 51 53 54 56 54 49 57 60 59 59 60 61 62 62 63 62 63 64 65 65 66 67 67 68 70 69 70 72 76 74 74 74 74 74 73 72 73
49 49 49 43 46 33 51 56 56 55 56 58 57 58 59 59 61 63 66 63 61 61 60 61 64 64 65 66 66 67 68 68 69 68 71 73 74 74 73 73 72 71 72 71
54 50 43 37 41 47 52 53 51 51 52 59 58 59 58 59 60 62 62 62 61 61 61 62 64 64 64 65 65 65 65 66 68 69 70 72 75 73 72 71 70 70 70 69
54 52 44 44 32 30 49 54 59 58 46 59 58 56 55 57 51 59 61 61 61 62 62 62 63 64 63 64 65 63 63 64 65 68 70 72 72 72 71 71 69 69 69 70
45 45 38 39 34 44 56 56 58 42 46 56 57 57 56 54 57 58 61 61 62 58 57 58 57 57 60 62 63 60 61 62 65 67 68 69 70 70 71 70 69 68 67 68
45 41 40 42 34 31 57 54 48 52 57 57 58 58 56 57 58 59 58 57 58 56 58 56 54 58 58 59 59 57 58 63 65 65 66 67 68 71 73 67 68 68 67 66
40 50 44 45 46 53 58 56 59 57 57 58 58 59 57 54 56 58 54 56 57 58 56 58 56 55 58 59 59 56 56 59 62 63 63 65 66 69 68 66 67 67 66 67
52 53 45 46 54 55 57 59 60 60 58 59 60 59 58 53 55 54 57 56 58 57 56 58 59 60 59 62 61 58 60 59 60 59 60 63 64 66 67 66 68 67 67 67
53 52 49 50 55 57 58 58 58 58 59 58 58 57 53 51 51 54 54 54 54 53 56 56 57 58 59 63 61 61 59 62 60 58 59 61 64 63 64 63 64 66 60 56
55 50 43 43 53 52 53 58 59 56 56 55 55 55 56 52 51 56 55 54 52 54 54 54 56 57 60 61 59 59 60 62 59 58 59 59 61 57 62 58 51 41 43 41
MSLP
1008.54 1007.88 1006.81 1006.21 1006.47 1006.00 1006.28 1006.10 1005.68 1005.61 1006.07 1006.37 1005.43 1004.81 1004.49 1004.51 1004.68 1004.65 1004.79 1005.40 1005.77 1006.21 1006.85 1007.10 1007.24 1007.24 1006.93 1006.82 1006.98 1007.55 1008.11 1008.75 1009.40 1009.89 1010.14 1010.44 1010.65 1011.59 1011.74 1012.55 1011.75 1012.48 1012.84 1013.33
1007.94 1006.88 1006.11 1006.35 1006.64 1006.85 1006.79 1006.37 1005.95 1005.93 1006.12 1006.40 1005.13 1005.00 1004.45 1004.39 1004.85 1005.60 1006.14 1006.41 1006.79 1006.95 1007.17 1007.53 1007.50 1007.27 1007.21 1007.26 1007.21 1007.35 1007.83 1008.42 1009.04 1009.28 1009.66 1009.92 1009.65 1009.91 1010.62 1011.53 1012.02 1012.47 1012.80 1013.45
1006.51 1005.79 1005.98 1006.42 1006.76 1006.83 1006.56 1006.22 1005.87 1005.84 1006.08 1006.15 1005.46 1004.68 1004.43 1005.34 1006.13 1006.65 1007.11 1007.45 1007.66 1007.78 1007.86 1007.95 1007.88 1007.74 1007.38 1007.27 1007.35 1007.18 1007.38 1007.97 1008.55 1008.93 1009.32 1009.79 1009.66 1009.93 1009.78 1010.63 1011.64 1012.40 1012.40 1012.61
1006.20 1005.84 1006.36 1006.39 1006.21 1006.59 1005.87 1006.36 1006.24 1006.01 1005.90 1004.75 1005.00 1003.25 1003.70 1004.92 1006.11 1007.00 1007.63 1008.01 1008.20 1008.33 1008.28 1008.16 1008.12 1008.02 1007.95 1007.92 1007.33 1007.02 1007.04 1007.52 1008.21 1008.70 1008.66 1008.95 1008.85 1009.04 1009.55 1010.20 1010.78 1011.48 1012.66 1012.88
1005.83 1006.07 1006.18 1006.20 1006.01 1006.07 1005.92 1005.86 1006.16 1005.93 1005.49 1005.05 1004.88 1004.53 1002.66 1004.84 1006.18 1007.53 1008.32 1008.73 1008.91 1008.84 1008.75 1008.57 1008.45 1008.49 1008.34 1008.37 1007.70 1007.02 1006.99 1007.28 1008.02 1008.33 1008.83 1008.70 1009.03 1008.85 1009.38 1009.89 1010.65 1011.05 1011.63 1011.80
1006.00 1006.65 1006.65 1006.36 1006.61 1006.60 1006.49 1006.44 1006.35 1006.17 1005.58 1004.56 1004.54 1004.55 1003.46 1004.27 1006.28 1008.31 1009.05 1009.49 1009.58 1009.43 1009.39 1009.15 1009.18 1009.17 1008.98 1008.69 1008.50 1008.13 1007.59 1007.54 1007.87 1008.21 1008.61 1008.84 1008.68 1008.96 1008.60 1009.02 1009.62 1010.05 1010.70 1011.33
1006.31 1006.68 1007.62 1007.68 1007.07 1007.04 1006.92 1006.38 1005.84 1005.51 1004.85 1003.87 1004.11 1004.22 1004.77 1007.30 1008.32 1009.24 1009.76 1010.14 1010.20 1010.02 1009.90 1009.65 1009.61 1009.57 1009.77 1009.52 1009.37 1009.06 1008.88 1008.68 1008.33 1007.89 1008.24 1008.60 1008.70 1008.89 1008.94 1008.96 1008.98 1009.24 1009.94 1010.43
1005.99 1007.20 1007.99 1008.36 1007.85 1006.95 1006.55 1006.34 1005.63 1004.51 1003.98 1003.55 1004.90 1005.06 1006.20 1008.61 1009.74 1010.31 1010.67 1010.69 1010.53 1010.39 1010.37 1010.40 1010.44 1010.26 1010.12 1010.32 1010.26 1009.89 1009.67 1009.48 1009.20 1008.80 1008.62 1008.39 1008.41 1008.42 1008.38 1008.51 1008.58 1009.13 1009.27 1010.51
1007.68 1007.87 1009.39 1009.32 1008.97 1008.74 1007.54 1007.68 1007.88 1006.76 1005.93 1005.62 1004.71 1006.83 1008.58 1009.38 1010.09 1010.68 1010.89 1011.02 1011.02 1010.90 1010.80 1010.81 1010.80 1010.85 1010.55 1010.52 1010.72 1010.61 1010.28 1009.99 1009.78 1009.65 1009.59 1009.19 1008.92 1008.58 1008.41 1008.51 1009.14 1009.85 1010.44 1010.88
1009.77 1009.19 1009.83 1009.97 1009.80 1009.52 1008.95 1009.19 1008.84 1008.63 1008.22 1007.12 1006.08 1006.38 1007.06 1009.13 1010.01 1010.62 1010.95 1011.33 1011.46 1011.31 1011.09 1011.09 1011.00 1011.13 1010.96 1010.73 1010.64 1010.95 1010.83 1010.54 1010.23 1009.89 1009.57 1009.40 1009.61 1009.43 1009.20 1009.17 1009.17 1009.71 1010.00 1010.42
1011.12 1010.70 1010.00 1010.49 1009.75 1009.00 1009.58 1009.32 1009.51 1009.74 1010.06 1008.91 1008.38 1008.87 1009.70 1009.81 1010.90 1011.57 1011.94 1012.34 1012.18 1012.04 1011.81 1011.54 1011.34 1011.25 1011.04 1011.11 1010.88 1011.04 1011.06 1010.75 1010.67 1010.49 1010.19 1009.82 1009.41 1009.48 1009.68 1009.58 1009.51 1009.52 1009.93 1010.13
1012.10 1011.66 1010.44 1010.27 1011.00 1011.36 1010.98 1010.46 1010.30 1009.96 1009.80 1009.75 1009.35 1009.78 1011.00 1011.56 1012.16 1012.56 1012.77 1012.89 1012.95 1012.90 1012.75 1012.42 1012.41 1012.17 1011.74 1011.47 1011.54 1011.40 1011.41 1011.05 1010.86 1010.86 1010.69 1010.45 1009.97 1009.65 1009.67 1010.02 1009.96 1009.72 1009.97 1010.28
1012.84 1011.97 1011.09 1010.80 1011.60 1011.81 1011.31 1010.94 1011.35 1011.32 1010.96 1009.96 1010.03 1010.57 1012.12 1012.47 1012.65 1013.07 1013.15 1013.29 1013.37 1013.48 1013.28 1012.98 1012.88 1012.79 1012.88 1012.76 1012.35 1012.12 1011.92 1011.51 1011.15 1011.04 1010.88 1010.76 1010.44 1009.96 1010.14 1009.88 1009.85 1010.09 1009.99 1009.78
1014.05 1012.95 1012.39 1011.42 1011.75 1012.12 1011.90 1011.84 1011.79 1011.64 1011.03 1010.32 1010.11 1010.94 1012.24 1012.27 1012.95 1013.29 1013.60 1013.80 1013.83 1013.94 1013.97 1013.85 1013.64 1013.53 1013.51 1013.41 1013.46 1013.10 1012.86 1012.55 1011.83 1011.47 1011.06 1011.10 1010.79 1010.50 1010.08 1009.88 1009.85 1010.03 1009.99 1009.79
1014.28 1013.35 1012.97 1012.75 1013.07 1013.00 1012.55 1012.26 1012.04 1011.93 1011.57 1011.06 1010.51 1010.79 1011.39 1012.01 1012.94 1013.68 1014.04 1014.13 1014.14 1014.08 1014.30 1014.48 1014.47 1014.41 1014.21 1013.98 1013.87 1013.55 1013.33 1013.05 1012.75 1012.18 1011.31 1011.20 1011.09 1010.78 1010.52 1010.13 1009.79 1009.56 1010.06 1010.10
1014.50 1013.83 1013.70 1013.22 1013.21 1013.39 1012.96 1012.59 1012.31 1012.14 1011.99 1011.89 1011.88 1011.72 1011.91 1012.80 1013.58 1013.60 1013.79 1014.09 1014.28 1014.30 1014.51 1014.74 1014.76 1014.74 1014.60 1014.32 1014.02 1013.87 1013.50 1013.17 1012.82 1012.24 1011.60 1010.93 1011.09 1010.79 1010.82 1010.64 1010.13 1009.73 1009.62 1010.00
1014.74 1014.13 1014.00 1013.18 1013.88 1013.50 1012.77 1011.97 1011.74 1011.76 1012.04 1012.14 1011.76 1011.73 1012.61 1013.09 1013.60 1013.78 1013.97 1014.27 1014.41 1014.50 1014.92 1014.99 1014.92 1014.83 1014.77 1014.65 1014.48 1014.04 1013.64 1013.32 1012.93 1012.39 1011.69 1010.82 1010.86 1010.86 1010.45 1010.51 1010.31 1009.96 1009.61 1009.38
1015.27 1014.82 1014.41 1013.97 1013.76 1013.03 1011.97 1012.61 1012.42 1011.60 1011.92 1012.16 1012.37 1012.72 1013.41 1013.81 1014.18 1014.17 1013.96 1014.27 1014.76 1015.20 1015.40 1015.35 1015.10 1014.93 1014.81 1014.68 1014.45 1014.15 1013.67 1013.15 1012.61 1012.17 1011.55 1010.92 1010.69 1010.58 1010.33 1010.38 1010.23 1010.01 1009.74 1009.58
1015.87 1015.50 1015.06 1014.71 1013.70 1012.99 1012.25 1012.40 1012.58 1012.12 1012.04 1012.37 1012.59 1012.96 1013.84 1014.34 1014.50 1013.57 1014.44 1015.07 1015.38 1015.51 1015.49 1015.38 1015.18 1014.92 1014.72 1014.51 1014.27 1013.98 1013.57 1013.08 1012.46 1011.73 1011.25 1010.81 1010.24 1010.28 1010.22 1010.31 1010.37 1010.14 1009.81 1009.54
1015.68 1015.95 1015.71 1014.66 1014.66 1013.30 1012.63 1013.17 1013.32 1013.31 1012.50 1012.66 1013.41 1013.85 1014.42 1014.72 1014.10 1013.40 1014.46 1015.19 1015.37 1015.39 1015.20 1014.92 1014.71 1014.46 1014.29 1014.04 1013.83 1013.71 1013.36 1012.82 1012.15 1011.63 1011.02 1010.72 1010.45 1010.12 1010.14 1010.10 1010.14 1010.10 1009.74 1009.14
1015.14 1015.45 1015.49 1015.32 1014.94 1013.66 1013.03 1013.82 1013.90 1013.47 1013.61 1014.02 1014.25 1014.62 1014.83 1014.90 1014.94 1015.07 1015.19 1015.17 1015.24 1015.34 1015.37 1015.38 1015.23 1014.75 1014.29 1013.92 1013.44 1013.11 1012.81 1012.29 1011.94 1011.51 1010.99 1010.62 1010.25 1009.85 1009.72 1009.97 1009.92 1009.78 1009.60 1009.23
1014.16 1014.63 1014.78 1014.81 1014.65 1014.20 1013.85 1014.26 1014.01 1014.37 1014.55 1014.76 1014.86 1015.01 1015.31 1015.42 1015.38 1015.28 1015.19 1015.15 1015.10 1014.91 1014.87 1015.10 1014.66 1014.06 1013.94 1013.53 1013.15 1012.80 1012.42 1011.92 1011.44 1011.15 1010.72 1010.31 1009.87 1009.38 1008.73 1009.61 1009.54 1009.38 1009.38 1009.11
1014.64 1014.06 1014.25 1014.23 1014.04 1014.30 1014.23 1014.19 1014.41 1015.00 1015.01 1014.99 1015.00 1015.30 1015.55 1015.73 1015.51 1015.42 1015.39 1015.08 1014.82 1014.62 1014.43 1014.12 1013.90 1013.74 1013.39 1012.97 1012.50 1012.20 1011.93 1011.69 1011.12 1010.61 1010.27 1009.94 1009.56 1008.87 1008.70 1009.15 1009.22 1009.13 1009.17 1008.88
1014.68 1015.12 1014.89 1014.58 1013.67 1014.02 1014.22 1014.46 1014.80 1015.11 1015.24 1015.36 1015.31 1015.45 1015.62 1015.67 1015.61 1015.37 1014.97 1014.96 1014.49 1014.58 1014.16 1013.57 1013.19 1012.65 1012.29 1011.97 1011.73 1011.63 1011.16 1010.92 1010.58 1010.16 1009.84 1009.47 1009.01 1008.40 1008.18 1008.71 1009.02 1008.94 1008.92 1008.86
1014.88 1015.41 1014.83 1014.32 1014.18 1014.15 1014.27 1014.64 1014.92 1015.29 1015.45 1015.48 1015.43 1015.47 1015.87 1016.06 1015.87 1015.33 1015.12 1014.86 1014.89 1014.61 1014.13 1013.49 1012.76 1012.17 1011.55 1011.09 1010.78 1010.59 1010.46 1009.91 1009.61 1009.54 1009.33 1008.84 1008.33 1008.05 1007.93 1008.55 1009.02 1009.15 1009.67 1010.14
1014.93 1015.00 1015.03 1014.94 1014.75 1014.79 1014.67 1014.93 1015.20 1015.37 1015.34 1015.42 1015.51 1015.48 1015.67 1016.04 1015.61 1014.84 1014.72 1014.87 1014.81 1014.09 1013.57 1013.19 1012.49 1011.68 1010.98 1010.55 1010.44 1010.15 1009.81 1009.45 1009.28 1009.05 1008.58 1008.26 1007.90 1008.06 1007.91 1008.39 1009.76 1010.19 1010.36 1010.51
Wind_Speed
15 12 14 16 15 14 6 8 8 6 3 8 14 13 11 10 12 13 6 1 4 8 8 11 12 12 9 7 9 12 15 15 13 13 13 12 12 10 9 9 9 10 11 12
10 18 15 7 8 9 11 12 12 6 7 10 8 12 12 11 4 2 1 5 7 10 11 12 14 14 12 7 7 10 13 15 15 12 11 10 10 10 10 9 8 12 12 11
18 2 7 11 12 14 13 13 10 10 8 10 8 14 11 9 9 7 7 6 8 11 13 13 13 13 14 13 10 9 11 13 15 15 10 10 9 10 9 8 8 9 10 12
18 16 6 11 14 14 15 12 12 10 10 11 13 11 15 15 10 6 7 8 9 11 11 12 12 13 14 14 13 7 10 11 13 14 12 15 12 10 8 7 9 8 12 13
14 14 14 13 13 12 13 9 13 13 12 14 13 10 7 13 11 5 7 9 11 11 13 15 15 14 13 14 14 11 5 6 10 11 14 12 14 10 8 9 9 9 9 12
15 3 3 6 1 8 4 8 11 11 12 16 17 13 12 12 8 5 7 9 10 12 13 15 16 16 16 15 15 14 12 3 5 9 12 14 13 12 10 9 9 8 9 9
15 8 3 2 10 8 11 12 10 13 13 14 15 16 3 7 9 7 7 8 9 10 12 14 17 16 18 19 18 14 13 11 12 5 8 11 13 13 13 13 10 9 9 9
16 12 5 3 5 9 13 14 13 15 13 13 8 10 9 8 8 8 7 6 8 10 11 13 15 15 15 17 17 17 16 15 14 10 9 6 9 8 9 11 9 8 9 5
6 6 4 4 6 4 8 11 8 11 8 11 6 8 7 7 8 6 7 6 8 9 9 10 14 15 14 14 14 15 15 15 13 11 10 7 6 7 6 5 6 6 9 10
3 4 4 2 4 5 4 3 5 4 7 13 11 8 2 13 9 7 5 4 6 6 7 9 11 12 12 12 11 13 14 14 13 14 12 7 7 7 6 5 10 12 13 15
6 6 7 5 9 5 7 8 5 5 8 7 7 2 7 6 6 0 4 6 8 8 9 10 10 11 10 12 15 13 12 12 12 13 13 12 9 5 4 5 7 10 12 14
3 5 10 12 8 7 11 12 14 11 15 11 13 4 5 6 4 3 7 6 9 9 9 9 11 12 13 12 13 13 12 10 11 11 12 13 12 10 5 4 6 4 8 9
1 4 8 10 9 8 10 9 13 15 14 17 12 1 7 6 4 4 4 5 7 8 11 10 11 11 11 13 12 11 12 12 11 10 10 11 11 11 7 9 5 7 9 9
4 7 10 11 8 7 4 7 8 10 11 15 16 7 9 7 2 1 2 4 5 6 8 10 11 12 12 11 11 11 11 14 14 13 8 10 10 10 10 6 4 5 7 10
5 11 6 10 7 8 10 9 9 11 11 11 9 7 6 7 2 2 2 4 7 8 8 8 9 10 11 11 11 11 11 11 12 13 12 5 6 8 10 10 9 4 5 8
4 7 6 12 4 9 11 12 12 13 12 12 11 13 11 5 5 6 5 5 9 10 9 10 11 12 12 12 12 12 12 12 12 12 12 6 6 5 6 8 9 8 5 3
7 8 7 11 2 10 14 15 17 16 13 10 11 3 4 5 5 6 8 10 11 11 11 13 14 13 12 13 13 13 12 12 12 12 12 9 6 7 5 6 7 7 9 8
8 10 7 8 6 11 2 3 8 10 8 7 6 4 1 4 7 11 12 8 9 12 14 15 13 13 14 13 14 14 14 13 12 12 11 12 8 7 5 6 6 7 7 9
10 10 4 4 9 11 16 5 4 6 8 6 7 2 4 4 10 13 7 5 11 14 14 14 14 14 15 15 14 14 15 15 15 13 12 11 11 7 7 5 5 5 6 7
13 11 8 8 5 4 7 4 0 2 11 7 1 1 3 8 10 8 15 14 15 16 15 16 18 17 15 15 14 14 15 16 15 15 13 11 11 11 9 6 5 4 5 8
10 11 12 10 5 8 5 4 2 8 5 5 2 6 9 10 10 15 15 16 17 15 16 16 14 14 16 17 15 14 15 15 15 16 15 13 12 12 10 8 5 4 5 7
7 8 7 10 5 8 5 6 7 6 2 4 8 9 10 11 13 15 15 16 18 17 15 15 13 14 13 14 12 14 15 15 14 15 15 14 13 11 8 7 7 5 4 6
5 4 3 7 3 3 4 3 3 4 8 10 10 8 9 12 15 16 16 16 15 16 14 12 10 11 13 14 12 12 12 15 16 15 15 14 14 12 10 10 7 6 4 5
5 3 5 3 5 4 6 7 7 8 8 9 10 11 12 13 14 15 16 14 13 13 15 13 13 13 13 13 12 13 14 12 15 15 15 14 14 12 10 8 6 4 4 4
8 0 7 9 10 8 8 4 3 6 9 11 12 10 10 10 14 15 14 13 13 13 14 15 15 14 15 15 14 13 12 14 12 12 13 13 12 11 9 6 3 2 1 4
8 9 8 6 7 4 4 5 8 10 12 12 11 13 10 12 15 16 12 10 12 14 14 14 16 16 15 13 13 14 12 10 12 11 11 10 10 7 5 6 6 2 2 1
Wind_Direction
199 219 219 218 223 268 264 262 257 235 238 254 249 254 245 227 223 231 207 213 1 358 13 11 5 4 357 295 219 214 209 203 201 201 203 212 218 211 197 235 206 211 212 213
179 228 235 232 227 234 233 237 239 255 229 224 224 242 233 222 179 60 19 39 5 350 359 6 358 355 2 354 296 224 224 209 206 208 213 223 215 224 207 203 214 220 206 217
227 132 233 218 207 223 228 237 230 257 160 236 259 239 212 132 143 113 65 40 21 4 354 359 359 359 354 353 341 290 225 224 214 221 207 219 226 233 218 201 210 214 214 214
236 249 220 217 224 219 236 212 243 225 225 245 196 260 182 161 145 92 49 34 23 15 12 10 8 8 6 353 336 318 260 220 221 215 219 213 223 220 221 221 216 197 211 216
220 225 219 228 237 225 253 223 222 233 242 258 200 254 189 151 163 70 54 50 41 32 31 26 20 19 17 7 358 349 317 235 226 214 235 222 228 235 216 219 214 187 201 213
250 116 276 298 356 247 255 225 236 241 246 236 237 214 238 178 105 106 81 63 50 42 37 37 33 32 21 23 18 15 358 337 248 233 217 242 242 235 241 209 220 203 204 199
200 179 148 315 238 206 219 226 225 217 224 243 238 223 242 86 94 95 92 79 60 44 37 34 30 32 29 26 22 21 24 18 355 275 236 235 233 241 236 237 213 214 204 201
221 180 230 31 273 296 219 244 250 255 246 233 142 218 105 111 115 105 86 67 57 46 47 41 30 20 28 30 26 25 23 17 10 1 355 275 246 239 229 224 241 198 218 127
252 184 141 65 38 274 178 231 356 291 277 279 214 113 148 151 146 151 127 80 55 42 50 31 25 18 15 22 27 23 19 20 19 10 358 333 308 263 273 233 192 129 146 152
55 255 205 112 238 94 301 64 217 228 276 264 261 257 189 173 150 137 118 65 41 23 24 26 22 18 5 8 21 15 8 15 15 10 2 347 335 289 260 182 195 179 178 169
303 268 171 211 209 250 179 194 229 277 231 247 264 270 11 121 95 219 41 16 6 338 342 345 351 357 357 0 359 1 359 8 15 4 357 0 347 335 293 231 219 201 180 169
35 294 266 255 31 289 266 271 280 250 229 239 261 231 126 117 102 54 60 39 36 13 4 360 345 335 338 344 353 358 353 357 4 4 0 358 358 360 309 272 296 213 198 212
145 211 250 208 200 203 245 234 242 257 275 256 243 195 142 130 116 73 32 26 28 5 12 13 2 356 350 344 344 344 338 346 349 352 358 4 355 358 7 323 233 238 264 226
294 276 281 292 7 328 268 236 232 239 245 254 249 216 219 181 279 322 17 4 360 358 4 6 355 353 351 346 341 338 336 333 339 333 351 357 356 351 351 352 300 273 251 273
270 259 249 269 291 280 278 264 234 239 262 271 299 297 269 307 311 278 322 332 329 333 333 340 338 338 335 337 333 330 325 329 331 325 314 351 346 353 349 349 343 331 252 249
206 263 286 276 242 268 273 263 255 260 258 260 265 271 272 70 251 258 281 305 313 320 323 326 324 325 324 327 325 326 321 323 321 316 304 325 324 341 344 338 338 335 331 278
258 265 247 271 156 282 267 262 255 245 241 257 251 20 97 207 262 297 305 309 311 327 328 322 319 314 313 312 312 307 309 307 309 308 300 285 298 303 341 331 328 334 331 325
273 251 276 270 270 272 44 353 290 241 220 221 249 245 354 321 311 293 285 322 335 331 323 317 312 311 309 309 302 300 296 296 292 293 294 294 269 289 312 315 328 327 323 317
224 260 257 253 270 274 278 183 217 206 199 216 260 229 267 324 311 287 65 339 323 314 311 309 304 304 303 299 298 296 293 289 285 280 282 283 285 264 275 280 307 314 315 311
221 233 248 264 236 264 52 82 29 264 256 97 244 123 303 317 290 300 8 331 317 307 306 308 309 302 298 295 296 292 289 288 282 280 277 284 281 277 265 270 266 286 294 296
182 204 223 237 259 291 56 126 146 245 61 113 87 315 305 293 310 315 310 309 314 315 313 312 300 296 296 297 293 291 289 283 286 282 283 279 276 267 251 258 259 277 294 309
185 185 202 223 228 254 109 156 251 67 94 312 303 301 299 295 299 301 305 313 313 307 311 296 294 294 296 292 291 290 289 289 285 283 277 274 271 266 240 233 262 269 297 296
257 268 301 192 220 67 189 306 72 320 305 307 296 288 288 294 295 316 305 309 303 318 306 304 292 279 285 290 289 283 283 285 287 281 277 271 272 264 239 237 235 261 269 296
204 235 243 286 229 286 244 239 247 291 296 308 293 280 289 290 295 300 312 307 315 325 311 307 297 291 287 285 287 295 288 274 271 277 275 270 261 255 242 233 219 242 269 296
300 13 251 270 265 264 249 302 294 302 297 293 291 285 301 306 294 295 303 312 315 308 305 301 300 292 291 292 298 297 291 288 282 267 265 262 256 250 246 213 275 257 87 339
242 249 244 252 21 293 307 344 316 297 295 304 304 298 285 275 294 297 298 309 293 293 301 299 288 283 289 297 304 308 305 291 285 278 272 269 251 247 231 171 159 82 5 103